EW7144 Weather Reports


Display with metric or nautical units.
time (UTC)temp
F
wind
direction
speed
MPH
gust
MPH
rain 1hr
in
rain 24hr
in
rain mn
in
humidity
%
barometer
mb
20180820013409 50 301 2.0 9.0 0.13 0.93 0.91 95 994.2
20180820012410 50 307 6.0 14.0 0.09 0.90 0.88 95 995.0
20180820011410 50 334 6.0 12.0 0.08 0.88 0.87 95 995.0
20180820010409 51 273 3.0 10.0 0.08 0.88 0.87 94 994.8
20180820005409 51 287 5.0 14.0 0.05 0.85 0.83 93 995.1
20180820004409 51 272 8.0 16.0 0.00 0.80 0.79 91 995.6
20180820003409 52 359 9.0 17.0 0.00 0.80 0.79 88 995.4
20180820002409 54 305 12.0 26.0 0.00 0.80 0.79 85 995.4
20180820001410 56 350 7.0 20.0 0.00 0.80 0.79 94 995.2
20180820000409 56 4 4.0 23.0 0.01 0.80 0.79 94 995.4
20180819235409 56 24 12.0 21.0 0.01 0.80 0.79 94 995.7
20180819234410 55 14 9.0 20.0 0.01 0.80 0.79 93 995.9
20180819233410 55 22 14.0 23.0 0.01 0.80 0.79 92 996.0
20180819232410 55 16 14.0 23.0 0.01 0.80 0.79 94 996.0
20180819231410 55 13 14.0 23.0 0.01 0.80 0.79 94 996.1
20180819230410 55 358 15.0 26.0 0.00 0.80 0.78 94 996.0
20180819225409 55 18 12.0 21.0 0.01 0.80 0.78 95 996.3
20180819224409 54 0 7.0 18.0 0.01 0.80 0.78 97 996.7
20180819223409 51 9 5.0 13.0 0.01 0.80 0.78 95 996.8
20180819222409 50 95 10.0 14.0 0.02 0.80 0.78 94 996.7
20180819221409 51 108 4.0 12.0 0.02 0.80 0.78 94 996.7
20180819215412 52 57 5.0 12.0 0.02 0.79 0.77 95 996.7
20180819214409 51 114 6.0 12.0 0.02 0.79 0.77 95 996.8
20180819213409 52 113 6.0 10.0 0.02 0.79 0.77 94 996.9
20180819212410 52 90 6.0 10.0 0.01 0.78 0.76 94 997.1
20180819211409 54 74 3.0 10.0 0.01 0.78 0.76 95 997.2
20180819210409 54 27 7.0 14.0 0.00 0.77 0.76 95 997.3
20180819205410 54 10 6.0 13.0 0.01 0.77 0.76 95 997.2
20180819204410 55 13 5.0 13.0 0.01 0.77 0.76 95 997.1
20180819203409 54 11 6.0 16.0 0.02 0.77 0.76 95 997.4
20180819202409 54 19 8.0 20.0 0.02 0.77 0.76 95 997.6
20180819201410 54 18 9.0 16.0 0.02 0.77 0.76 95 997.7
20180819200409 54 34 9.0 17.0 0.02 0.77 0.76 95 997.6
20180819195409 54 7 8.0 21.0 0.01 0.76 0.75 95 997.8
20180819194410 54 10 12.0 22.0 0.02 0.76 0.75 95 997.9
20180819193410 54 15 12.0 23.0 0.02 0.76 0.74 95 998.0
20180819192409 54 16 12.0 22.0 0.02 0.76 0.74 95 998.0
20180819191410 54 7 10.0 20.0 0.02 0.76 0.74 95 998.0
20180819190409 53 24 13.0 21.0 0.02 0.76 0.74 95 998.1
20180819185409 53 8 6.0 17.0 0.02 0.76 0.74 94 998.1
20180819184409 53 52 6.0 22.0 0.00 0.74 0.72 94 998.2
20180819183409 53 47 9.0 20.0 0.02 0.74 0.72 95 998.3
20180819182409 53 28 10.0 20.0 0.03 0.74 0.72 95 998.4
20180819181410 53 44 13.0 26.0 0.05 0.74 0.72 95 998.7
20180819180410 52 25 12.0 21.0 0.06 0.74 0.72 95 998.8
20180819175410 52 26 7.0 21.0 0.09 0.74 0.72 95 998.9
20180819174410 52 26 8.0 23.0 0.16 0.74 0.72 94 998.9
20180819173409 52 44 13.0 22.0 0.15 0.72 0.70 94 999.1
20180819172410 52 10 11.0 24.0 0.17 0.71 0.69 95 999.1
20180819171409 52 15 7.0 30.0 0.17 0.69 0.68 95 999.2
20180819170410 52 38 7.0 25.0 0.17 0.68 0.66 95 999.4
20180819165410 51 21 7.0 24.0 0.19 0.65 0.63 95 999.5
20180819164409 51 32 7.0 16.0 0.18 0.58 0.57 96 999.5
20180819163409 51 112 9.0 17.0 0.19 0.57 0.55 96 999.8
20180819162410 50 110 6.0 17.0 0.18 0.54 0.52 96 1000.0
20180819161409 50 91 8.0 16.0 0.21 0.53 0.51 96 1000.1
20180819160409 49 104 6.0 15.0 0.21 0.50 0.49 96 1000.6
20180819155410 49 113 6.0 12.0 0.21 0.46 0.44 96 1000.8
20180819154409 49 137 5.0 12.0 0.19 0.40 0.39 95 1000.6
20180819153409 49 159 2.0 8.0 0.19 0.38 0.36 95 1000.9
20180819152409 49 144 3.0 9.0 0.19 0.35 0.34 95 1001.2
20180819151409 49 123 5.0 12.0 0.16 0.31 0.30 95 1001.8
20180819150409 49 94 6.0 13.0 0.17 0.29 0.28 95 1002.2
20180819145410 49 113 3.0 8.0 0.13 0.24 0.23 95 1002.2
20180819144409 48 144 4.0 8.0 0.14 0.21 0.20 94 1002.4
20180819143409 48 156 3.0 9.0 0.14 0.19 0.17 94 1002.5
20180819142410 49 114 3.0 7.0 0.15 0.17 0.15 93 1003.1
20180819141410 49 93 5.0 10.0 0.14 0.17 0.14 93 1003.3
20180819140409 49 70 5.0 17.0 0.11 0.13 0.11 93 1003.4
20180819135409 49 140 2.0 9.0 0.09 0.12 0.09 93 1003.6
20180819134410 49 136 4.0 10.0 0.06 0.08 0.06 92 1003.5
20180819133409 49 27 2.0 12.0 0.03 0.06 0.03 91 1003.6
20180819132409 49 140 4.0 12.0 0.00 0.02 0.00 91 1003.7
20180819131410 49 123 5.0 10.0 0.00 0.02 0.00 91 1004.0
20180819130409 49 134 7.0 12.0 0.00 0.02 0.00 91 1004.2
20180819125412 49 105 5.0 13.0 0.00 0.02 0.00 91 1004.4
20180819124413 49 138 5.0 10.0 0.00 0.02 0.00 91 1004.6
20180819123413 49 125 6.0 12.0 0.00 0.02 0.00 91 1004.8
20180819122413 49 112 6.0 10.0 0.01 0.02 0.00 91 1004.8
20180819121412 49 135 7.0 10.0 0.02 0.02 0.00 91 1005.1
20180819120412 49 107 7.0 12.0 0.02 0.02 0.00 91 1005.2
20180819115412 48 138 5.0 9.0 0.02 0.02 0.02 91 1005.4
20180819114413 49 130 3.0 10.0 0.02 0.02 0.02 90 1005.4
20180819113412 49 150 6.0 12.0 0.02 0.02 0.02 88 1005.5
20180819112413 49 110 6.0 9.0 0.01 0.02 0.02 86 1005.7
20180819111413 50 131 3.0 8.0 0.00 0.01 0.01 84 1005.7
20180819110413 50 118 2.0 7.0 0.00 0.01 0.01 81 1005.8
20180819105413 50 116 4.0 9.0 0.00 0.01 0.01 81 1006.1
20180819104412 50 132 6.0 9.0 0.00 0.01 0.01 81 1006.1
20180819103412 49 118 4.0 9.0 0.00 0.01 0.01 81 1006.3
20180819102412 49 132 3.0 10.0 0.00 0.01 0.01 81 1006.4
20180819101413 49 132 5.0 9.0 0.00 0.01 0.01 80 1006.5
20180819100412 49 124 5.0 9.0 0.00 0.01 0.01 80 1006.7
20180819095413 49 118 5.0 9.0 0.00 0.01 0.01 80 1006.8
20180819094412 49 119 5.0 9.0 0.00 0.01 0.01 81 1006.9
20180819093412 49 120 6.0 9.0 0.00 0.01 0.01 81 1007.0
20180819092412 49 119 5.0 8.0 0.00 0.01 0.01 80 1007.1
20180819091412 49 97 5.0 8.0 0.00 0.01 0.01 80 1007.2
20180819090412 49 85 5.0 7.0 0.00 0.01 0.01 79 1007.3
20180819085412 49 76 3.0 8.0 0.00 0.01 0.01 79 1007.4
20180819084412 49 77 3.0 7.0 0.00 0.01 0.01 78 1007.5
20180819083412 49 60 3.0 6.0 0.00 0.01 0.01 78 1007.5
20180819082412 50 4 3.0 5.0 0.00 0.01 0.01 77 1007.6
20180819081412 49 303 3.0 3.0 0.00 0.01 0.01 77 1007.8
20180819080413 49 289 2.0 3.0 0.00 0.01 0.01 78 1007.9
20180819075412 49 289 3.0 3.0 0.00 0.01 0.01 79 1008.0
20180819074412 49 289 2.0 3.0 0.00 0.01 0.01 81 1008.0
20180819073412 49 289 1.0 1.0 0.00 0.01 0.01 82 1008.1
20180819072412 48 289 0.0 1.0 0.00 0.01 0.01 83 1008.1
20180819071412 48 289 1.0 2.0 0.00 0.01 0.01 82 1008.2
20180819070412 49 289 0.0 2.0 0.00 0.01 0.01 83 1008.1
20180819065412 49 289 1.0 2.0 0.00 0.01 0.01 85 1008.1
20180819064412 49 289 0.0 1.0 0.00 0.01 0.01 83 1008.2
20180819063412 50 289 1.0 2.0 0.00 0.01 0.01 82 1008.2
20180819062421 50 289 1.0 3.0 0.00 0.01 0.01 81 1008.2
20180819061412 50 289 2.0 3.0 0.00 0.01 0.01 81 1008.1
20180819060412 50 289 1.0 2.0 0.00 0.01 0.01 81 1008.1
20180819055412 50 289 0.0 0.0 0.00 0.01 0.01 81 1008.1
20180819054412 50 289 0.0 0.0 0.00 0.01 0.01 80 1008.1
20180819053412 51 289 0.0 2.0 0.00 0.01 0.01 78 1008.3
20180819052412 52 289 0.0 1.0 0.00 0.01 0.01 77 1008.2
20180819051412 53 289 0.0 2.0 0.00 0.01 0.01 74 1008.1
20180819050412 54 289 1.0 3.0 0.00 0.01 0.01 73 1008.1
20180819045412 54 289 2.0 3.0 0.00 0.01 0.01 72 1008.1
20180819044412 54 289 2.0 5.0 0.00 0.01 0.01 70 1008.2
20180819043412 55 289 2.0 3.0 0.00 0.01 0.01 70 1008.3
20180819042412 55 289 3.0 5.0 0.00 0.01 0.01 68 1008.2
20180819041412 57 289 3.0 5.0 0.00 0.01 0.01 67 1008.3
20180819040412 57 287 5.0 8.0 0.00 0.01 0.01 67 1008.5
20180819035412 56 282 4.0 8.0 0.00 0.01 0.01 69 1008.6
20180819034412 56 290 4.0 8.0 0.00 0.01 0.01 68 1008.6
20180819033413 57 290 5.0 9.0 0.00 0.01 0.01 67 1008.6
20180819032412 57 284 3.0 8.0 0.00 0.01 0.01 67 1008.7
20180819031412 57 277 5.0 9.0 0.00 0.01 0.01 68 1008.9
20180819030411 57 286 5.0 9.0 0.00 0.01 0.01 68 1008.9
20180819025412 57 280 4.0 10.0 0.00 0.01 0.01 71 1008.9
20180819024412 57 262 5.0 9.0 0.00 0.01 0.01 68 1009.0
20180819023412 57 287 5.0 8.0 0.00 0.01 0.01 70 1009.1
20180819022412 57 283 4.0 9.0 0.00 0.01 0.01 71 1009.1
20180819021412 57 277 4.0 9.0 0.00 0.01 0.01 73 1009.3
20180819020411 56 287 7.0 10.0 0.00 0.01 0.01 74 1009.3
20180819015412 57 285 6.0 10.0 0.00 0.01 0.01 74 1009.3
20180819014412 56 293 7.0 12.0 0.00 0.01 0.01 75 1009.4